Weather History for Sitka, AK

Change the Weather History Date:

Sunday, July 13, 2014

  Actual Average Record
Temperature  
Mean Temperature 56 °F -  
Max Temperature 57 °F 59 °F 72 °F (1953)
Min Temperature 55 °F 49 °F 43 °F (1999)
Degree Days  
Heating Degree Days 9    
Growing Degree Days 6 (Base 50)    
Moisture  
Dew Point 56 °F    
Average Humidity 98    
Maximum Humidity 100    
Minimum Humidity 94    
Precipitation  
Precipitation 0.29 in - - ()
Sea Level Pressure  
Sea Level Pressure 30.22 in    
Wind  
Wind Speed 4 mph (WNW)    
Max Wind Speed 8 mph    
Max Gust Speed -    
Visibility 5 miles    
Events Rain    
Averages and records for this station are not official NWS values.
T = Trace of Precipitation, MM = Missing Value Source: NWS Daily Summary

Daily Weather History Graph

Daily Weather History Graph

Search for Another Location

Airport:

Trip Planner

Search our weather history database for the weather conditions in past years. The results will help you decide how hot, cold, wet, or windy it might be!

Date:

Astronomy

Jul. 13, 2014 Rise Set
Actual Time 4:26 AM AKDT 9:47 PM AKDT
Civil Twilight 3:25 AM AKDT 10:47 PM AKDT
Nautical Twilight 1:39 AM AKDT 12:34 AM AKDT
Astronomical Twilight Sun does not rise Sun does not rise
Moon 9:58 PM AKDT (7/13) 6:39 AM AKDT (7/13)
Length of Visible Light 19h 22m
Length of Day
17h 20m
Full, 97% of the Moon is Illuminated
Jul 13
Full
Jul 18
Last Quarter
Jul 26
New
Aug 3
First Quarter
Aug 10
Full

Hourly Weather History & Observations

Time (AKDT) Temp. Dew Point Humidity Pressure Visibility Wind Dir Wind Speed Gust Speed Precip Events Conditions
12:11 AM 55.9 °F 55.9 °F 100% 30.18 in 6.0 mi Variable 4.6 mph - N/A   Overcast
12:21 AM 55.9 °F 55.9 °F 100% 30.18 in 6.0 mi NNW 3.5 mph - N/A   Overcast
12:53 AM 55.9 °F 55.9 °F 100% 30.18 in 6.0 mi Calm Calm - 0.00 in   Overcast
1:53 AM 55.9 °F 55.9 °F 100% 30.19 in 6.0 mi Calm Calm - N/A   Overcast
2:53 AM 55.9 °F 55.9 °F 100% 30.19 in 5.0 mi NW 4.6 mph - 0.01 in Rain Light Rain
3:53 AM 55.9 °F 55.9 °F 100% 30.19 in 5.0 mi NW 4.6 mph - 0.00 in Rain Light Rain
4:53 AM 55.9 °F 55.0 °F 97% 30.19 in 5.0 mi NNW 5.8 mph - 0.00 in   Overcast
5:15 AM 55.9 °F 55.0 °F 97% 30.19 in 5.0 mi NW 6.9 mph - N/A   Overcast
5:28 AM 55.9 °F 55.0 °F 97% 30.19 in 5.0 mi WNW 6.9 mph - N/A   Overcast
5:53 AM 55.9 °F 55.9 °F 100% 30.20 in 3.0 mi West 6.9 mph - N/A   Overcast
6:01 AM 55.9 °F 55.0 °F 97% 30.19 in 2.0 mi WNW 6.9 mph - N/A   Overcast
6:09 AM 55.9 °F 55.9 °F 100% 30.20 in 1.5 mi WNW 5.8 mph - N/A   Overcast
6:23 AM 55.9 °F 55.9 °F 100% 30.20 in 0.8 mi WNW 5.8 mph - N/A   Overcast
6:53 AM 55.9 °F 55.9 °F 100% 30.21 in 1.8 mi SSW 5.8 mph - 0.00 in   Overcast
7:00 AM 55.9 °F 55.9 °F 100% 30.21 in - South 6.9 mph - 0.00 in Rain Light Rain
7:07 AM 55.9 °F 55.9 °F 100% 30.21 in 1.5 mi SSW 8.1 mph - 0.00 in Rain Light Rain
7:27 AM 55.9 °F 55.9 °F 100% 30.22 in 2.5 mi SSW 8.1 mph - 0.03 in Rain Light Rain
7:35 AM 55.9 °F 55.9 °F 100% 30.22 in 3.0 mi SSW 5.8 mph - 0.03 in Rain Light Rain
7:38 AM 55.9 °F 55.9 °F 100% 30.22 in 3.0 mi SSW 5.8 mph - 0.03 in Rain Light Rain
7:53 AM 55.9 °F 55.9 °F 100% 30.22 in 2.5 mi SW 4.6 mph - 0.04 in Rain Light Rain
8:19 AM 55.9 °F 55.9 °F 100% 30.22 in 2.5 mi WNW 3.5 mph - 0.05 in Rain Light Rain
8:26 AM 55.9 °F 55.0 °F 97% 30.23 in 2.5 mi Calm Calm - 0.07 in Rain Rain
8:53 AM 55.9 °F 55.0 °F 97% 30.23 in 1.8 mi NW 4.6 mph - 0.12 in Rain Light Rain
9:06 AM 55.9 °F 55.9 °F 100% 30.23 in 2.5 mi NNW 4.6 mph - 0.01 in Rain Light Rain
9:14 AM 55.9 °F 55.9 °F 100% 30.23 in 2.5 mi Calm Calm - 0.01 in Rain Light Rain
9:25 AM 57.0 °F 55.9 °F 96% 30.23 in 3.0 mi NNW 3.5 mph - 0.01 in Rain Light Rain
9:53 AM 57.0 °F 55.9 °F 96% 30.23 in 3.0 mi NNW 3.5 mph - 0.01 in   Overcast
10:34 AM 57.0 °F 55.9 °F 96% 30.24 in 3.0 mi Calm Calm - 0.01 in   Overcast
10:49 AM 57.2 °F 57.2 °F 100% 30.23 in 3.0 mi WNW 3.5 mph - 0.01 in   Overcast
10:53 AM 57.0 °F 57.0 °F 100% 30.24 in 3.0 mi WNW 3.5 mph - 0.01 in   Overcast
11:07 AM 57.9 °F 57.0 °F 97% 30.24 in - WNW 4.6 mph - N/A   Overcast
11:34 AM 57.0 °F 57.0 °F 100% 30.23 in 2.5 mi Calm Calm - 0.00 in Rain Light Rain
11:48 AM 57.2 °F 57.2 °F 100% 30.23 in 3.0 mi NW 3.5 mph - 0.00 in Rain Light Rain
11:53 AM 57.0 °F 55.9 °F 96% 30.24 in 3.0 mi NW 3.5 mph - 0.00 in Rain Light Rain
12:00 PM 57.0 °F 55.9 °F 96% 30.24 in 3.0 mi NW 3.5 mph - 0.00 in Rain Light Rain
12:09 PM 57.0 °F 57.0 °F 100% 30.24 in 1.8 mi NNW 4.6 mph - 0.01 in Rain Light Rain
12:20 PM 57.0 °F 55.9 °F 96% 30.24 in 2.5 mi NW 4.6 mph - 0.04 in Rain Light Rain
12:25 PM 57.0 °F 55.9 °F 96% 30.24 in 3.0 mi NW 5.8 mph - 0.04 in Rain Light Rain
12:35 PM 57.0 °F 57.0 °F 100% 30.24 in 3.0 mi NNW 5.8 mph - 0.04 in Rain Light Rain
12:53 PM 57.0 °F 55.9 °F 96% 30.24 in 6.0 mi NW 5.8 mph - 0.05 in Rain Light Rain
1:00 PM 57.0 °F 55.9 °F 96% 30.24 in 6.0 mi WNW 4.6 mph - 0.00 in   Overcast
1:53 PM 57.0 °F 55.9 °F 96% 30.25 in 3.0 mi WNW 5.8 mph - 0.02 in Rain Light Rain
2:02 PM 57.0 °F 55.9 °F 96% 30.24 in 2.5 mi WNW 6.9 mph - 0.01 in Rain Light Rain
2:17 PM 57.0 °F 55.9 °F 96% 30.24 in 3.0 mi NW 6.9 mph - 0.01 in Rain Light Rain
2:53 PM 57.9 °F 57.9 °F 100% 30.24 in 10.0 mi West 4.6 mph - 0.01 in   Overcast
3:53 PM 57.9 °F 57.0 °F 97% 30.25 in 10.0 mi West 5.8 mph - N/A   Overcast
4:53 PM 57.9 °F 57.0 °F 97% 30.25 in 10.0 mi SSW 5.8 mph - 0.01 in Rain Light Rain
5:53 PM 57.9 °F 57.0 °F 97% 30.24 in 10.0 mi Calm Calm - 0.00 in   Overcast
6:53 PM 57.0 °F 55.9 °F 96% 30.25 in 10.0 mi WSW 4.6 mph - 0.01 in   Overcast
7:53 PM 57.0 °F 55.9 °F 96% 30.25 in 10.0 mi West 3.5 mph - N/A   Overcast
8:53 PM 57.0 °F 55.9 °F 96% 30.24 in 10.0 mi Calm Calm - N/A   Overcast
9:53 PM 57.0 °F 55.9 °F 96% 30.24 in 10.0 mi Calm Calm - N/A   Overcast
10:18 PM 57.0 °F 55.9 °F 96% 30.23 in 10.0 mi Calm Calm - N/A   Overcast
10:41 PM 57.0 °F 55.9 °F 96% 30.23 in 10.0 mi Calm Calm - N/A   Overcast
10:49 PM 57.2 °F 55.4 °F 94% 30.23 in 10.0 mi Calm Calm - N/A   Overcast
10:53 PM 57.0 °F 55.9 °F 96% 30.24 in 10.0 mi Calm Calm - N/A   Overcast
11:53 PM 57.0 °F 55.9 °F 96% 30.24 in 10.0 mi Calm Calm - N/A   Overcast